Location: La Silve
(44.2414°N, 5.8889°E)
Time: 13:03:11
(UTC+00:00)

CZ-4 R/B - Pass Details

Date: 01 December 2020
Orbit: 581 x 588 km, 97.8° (Epoch: 26 January)

Event Time Altitude Azimuth Distance (km) Brightness Sun altitude
Rises 17:35:25 0° 155° (SSE) 2,799 7.8 -16.8°
Reaches altitude 10° 17:37:36 10° 151° (SSE) 1,902 6.9 -17.2°
Maximum altitude 17:41:38 57° 73° (ENE) 695 4.4 -17.9°
Drops below altitude 10° 17:45:42 10° 355° (N) 1,913 7.0 -18.6°
Sets 17:47:53 0° 352° (N) 2,817 7.9 -19.0°
